Regional Weather Roundup
Issued by NWS

Home | Current Version | Previous Version | Graphics & Text | Print | Product List | Glossary On
Versions: 1 2 3 4 5 6 7 8 9 10 11 12 13 14 15 16 17 18 19 20 21 22 23 24 25 26 27 28 29 30 31 32 33 34 35 36 37 38 39 40 41 42 43 44 45 46 47 48 49 50
000
ASUS43 KDTX 041201
RWRMI
MICHIGAN HOURLY REGIONAL WEATHER ROUNDUP
NATIONAL WEATHER SERVICE DETROIT/PONTIAC MI
800 AM EDT WED MAY 04 2016

NOTE: "FAIR" INDICATES FEW OR NO CLOUDS BELOW 12,000 FEET WITH NO
SIGNIFICANT WEATHER AND/OR OBSTRUCTION TO VISIBILITY.

MIZ047>049-052>055-059>063-066>070-074>076-081>083-041300-
SOUTHEAST LOWER MICHIGAN

CITY           SKY/WX    TMP DP  RH WIND       PRES   REMARKS
ADRIAN         MOSUNNY   51  45  79 S8        29.61F
6HR MIN TEMP:  47; 6HR MAX TEMP:  52;

ALMA           DRIZZLE   49  46  89 W8        29.58R
ANN ARBOR      MOSUNNY   49  45  86 S8        29.61S
BAD AXE        CLOUDY    53  43  67 S8        29.59S
CARO           CLOUDY    52  44  73 S3        29.58S
DETROIT CITY   CLOUDY    52  45  77 S6        29.63F
6HR MIN TEMP:  51; 6HR MAX TEMP:  52; 6HR PCP: TRACE;

DETROIT        CLOUDY    51  45  79 SE6       29.63F
6HR MIN TEMP:  49; 6HR MAX TEMP:  51; 6HR PCP:  0.01;

FLINT          CLOUDY    55  44  66 S8        29.59
6HR MIN TEMP:  51; 6HR MAX TEMP:  57; 6HR PCP:  0.01;

GROSSE ILE     LGT RAIN  52  48  87 CALM      29.62S
HILLSDALE      CLOUDY    50  42  74 S6        29.59S
6HR MIN TEMP:  49; 6HR MAX TEMP:  53;

HOWELL         PTSUNNY   52  45  77 S7        29.59S

CITY           SKY/WX    TMP DP  RH WIND       PRES   REMARKS
JACKSON        CLOUDY    51  44  77 S9        29.58F
6HR MIN TEMP:  50; 6HR MAX TEMP:  54; 6HR PCP: TRACE;

LAMBERTVILLE   CLOUDY    52  46  80 S5        29.63S
6HR MIN TEMP:  51; 6HR MAX TEMP:  52;

LANSING        PTSUNNY   53  43  68 S8        29.57F
6HR MIN TEMP:  51; 6HR MAX TEMP:  54;

LAPEER         LGT RAIN  52  43  70 SW5       29.60S
6HR MIN TEMP:  50; 6HR MAX TEMP:  52;

MASON          LGT RAIN  51  45  78 S5        29.58S
MONROE         LGT RAIN  51  46  84 S6        29.62S
6HR MIN TEMP:  49; 6HR MAX TEMP:  51;

MT. CLEMENS    CLOUDY    51  51  99 SE6       29.62S
6HR MIN TEMP:  44; 6HR MAX TEMP:  51;

PONTIAC        DRIZZLE   49  46  90 S5        29.60S
6HR MIN TEMP:  49; 6HR MAX TEMP:  51; 6HR PCP:  0.02;

PORT HOPE        N/A     49  44  83 SE7       29.58S
6HR MIN TEMP:  48; 6HR MAX TEMP:  54; 6HR PCP:  0.01;

PORT HURON     PTSUNNY   50  46  87 S6        29.64S
TRI CITIES     LGT RAIN  51  46  83 SE6       29.58S
6HR MIN TEMP:  51; 6HR MAX TEMP:  57; 6HR PCP:  0.05;

MIDLAND        CLOUDY    48  47  97 N3        29.57S
6HR MIN TEMP:  43; 6HR MAX TEMP:  53;

TROY           LGT RAIN  50  47  90 SE5       29.63F
SAGINAW HB     CLOUDY    52  43  71 CALM      29.57F
$$
MIZ043>046-050>051-056>058-064>065-071>073-077>080-041300-
SOUTHWEST LOWER MICHIGAN

CITY           SKY/WX    TMP DP  RH WIND       PRES   REMARKS
BATTLE CREEK   LGT RAIN  50  45  83 SW9       29.57S
6HR MIN TEMP:  49; 6HR MAX TEMP:  54; 6HR PCP:  0.02;

BENTON HARBOR  LGT RAIN  43  41  93 NW12G18   29.63R FOG
6HR MIN TEMP:  43; 6HR MAX TEMP:  57; 6HR PCP:  0.29;

BIG RAPIDS     RAIN      45  42  90 N7        29.60S
6HR MIN TEMP:  45; 6HR MAX TEMP:  50; 6HR PCP:  0.49;

COLDWATER      LGT RAIN  51  46  82 SW6       29.59R
6HR MIN TEMP:  50; 6HR MAX TEMP:  55;

FREMONT        LGT RAIN  43  43 100 NW12      29.62R
HOLLAND        RAIN     N/A N/A N/A NW7       29.61S
                                      6HR PCP:  0.30;

GRAND RAPIDS   RAIN      49  46  90 N9        29.58R FOG
6HR MIN TEMP:  49; 6HR MAX TEMP:  55; 6HR PCP:  0.04;

IONIA          RAIN      49  45  87 N5        29.56R
6HR MIN TEMP:  49; 6HR MAX TEMP:  54; 6HR PCP:  0.01;

KALAMAZOO      LGT RAIN  50  47  89 S6        29.57S FOG
6HR MIN TEMP:  50; 6HR MAX TEMP:  54; 6HR PCP:  0.11;

LUDINGTON      CLOUDY    40  39  95 N15G25    29.67R WCI  32
6HR MIN TEMP:  40; 6HR MAX TEMP:  46; 6HR PCP:  0.25;

MARSHALL       CLOUDY    52  45  76 S6        29.57S
6HR MIN TEMP:  50; 6HR MAX TEMP:  55; 6HR PCP:  0.02;

MOUNT PLEASANT CLOUDY    49  46  89 N6        29.57S
6HR MIN TEMP:  46; 6HR MAX TEMP:  51;

MUSKEGON       LGT RAIN  45  40  82 N16       29.63R
6HR MIN TEMP:  45; 6HR MAX TEMP:  50; 6HR PCP:  0.30;

$$
MIZ016>042-041300-
NORTHERN LOWER MICHIGAN

CITY           SKY/WX    TMP DP  RH WIND       PRES   REMARKS
ALPENA         PTSUNNY   47  44  90 N12       29.62S
6HR MIN TEMP:  45; 6HR MAX TEMP:  49; 6HR PCP: TRACE;

BEAVER ISLAND  CLOUDY    41  39  94 N8G16     29.69R
6HR MIN TEMP:  41; 6HR MAX TEMP:  43;

BELLAIRE       MIX PCPN  43  41  93 N7        29.65R
6HR MIN TEMP:  43; 6HR MAX TEMP:  48;

CADILLAC       LGT RAIN  41  39  95 N9G16     29.61R
CHARLEVOIX     LGT RAIN  40  40 100 N8        29.69R
FRANKFORT      CLOUDY    41  39  93 N10G17    29.68S
GAYLORD        RAIN      46  44  93 NE6       29.62R FOG
6HR MIN TEMP:  45; 6HR MAX TEMP:  47; 6HR PCP:  0.61;

HARBOR SPRINGS LGT RAIN  42  41  95 N10       29.65R
HOUGHTON LAKE  RAIN      45  43  93 N7        29.60R FOG
6HR MIN TEMP:  45; 6HR MAX TEMP:  51; 6HR PCP:  0.35;

MANISTEE       CLOUDY    41  36  81 N10G18    29.68R
OSCODA         CLOUDY    46  42  84 NE9       29.59S
6HR MIN TEMP:  44; 6HR MAX TEMP:  48;

PELLSTON       RAIN      43  40  89 N13       29.66R FOG
6HR MIN TEMP:  43; 6HR MAX TEMP:  47; 6HR PCP:  0.43;

ROGERS CITY    LGT RAIN  44  42  94 N3        29.64R
TRAVERSE CITY  LGT RAIN  43  40  89 NW10      29.65R FOG
6HR MIN TEMP:  42; 6HR MAX TEMP:  49; 6HR PCP:  0.19;

$$
MIZ007>008-015-041300-
EASTERN UPPER MICHIGAN

CITY           SKY/WX    TMP DP  RH WIND       PRES   REMARKS
KINROSS          N/A     43  43 100 NW10      29.67R
6HR MIN TEMP:  39; 6HR MAX TEMP:  46;

MACKINAC ISLAN LGT RAIN  41  41 100 N10G16    29.65S
6HR MIN TEMP:  40; 6HR MAX TEMP:  46; 6HR PCP:  0.07;

NEWBERRY       CLOUDY    38  37  97 N9        29.71R WCI  31
6HR MIN TEMP:  38; 6HR MAX TEMP:  42;

S. S. MARIE    CLOUDY    45  40  82 NW5       29.67R
6HR MIN TEMP:  42; 6HR MAX TEMP:  48; 6HR PCP: TRACE;

MUNISING         N/A     39  33  79 N20       29.77R WCI  29
6HR MIN TEMP:  38; 6HR MAX TEMP:  41; 6HR PCP:  0.01;

$$
MIZ004>006-011>014-085-041300-
CENTRAL UPPER MICHIGAN

CITY           SKY/WX    TMP DP  RH WIND       PRES   REMARKS
MANISTIQUE     CLOUDY    39  36  87 N16G22    29.72R WCI  30
6HR MIN TEMP:  39; 6HR MAX TEMP:  41;

ESCANABA       CLOUDY    39  34  81 N9G23     29.76R WCI  33
6HR MIN TEMP:  39; 6HR MAX TEMP:  43;

MENOMINEE      CLOUDY    43  36  75 N14       29.77R
6HR MIN TEMP:  39; 6HR MAX TEMP:  45;

SAWYER-GWINN   CLOUDY    36  32  87 N22G29    29.76R WCI  24
$$
MIZ001>003-009>011-084-041300-
WESTERN UPPER MICHIGAN

CITY           SKY/WX    TMP DP  RH WIND       PRES   REMARKS
IRON MOUNTAIN  PTSUNNY   39  31  72 N17G30    29.77R WCI  30
6HR MIN TEMP:  39; 6HR MAX TEMP:  41;

HOUGHTON       CLOUDY    37  31  78 N15       29.84R WCI  28
6HR MIN TEMP:  37; 6HR MAX TEMP:  42; 6HR PCP: TRACE;

COPPER HARBOR    N/A     38  35  89 NE21      29.83R WCI  28
6HR MIN TEMP:  38; 6HR MAX TEMP:  40;

IRONWOOD         N/A     39  36  87 N6        29.85R WCI  35
6HR MIN TEMP:  36; 6HR MAX TEMP:  45;

$$

ABBREVIATIONS USED IN REMARKS
   TC - TEMPERATURE IN CELSIUS
  WCI - WIND CHILL INDEX
   HX - HEAT INDEX
  VSB - VISIBILITY





USA.gov is the U.S. government's official web portal to all federal, state and local government web resources and services.